Theta_e
321 322 323 323 323 323 323 323 324 324 323 323 323 322 322 322 320 320 319 319 318 318 318 318 317 317 316 315 313 312 311 310 310 309 308 308 308 308 307 307 306 305 304 303 302 300 299 297 296 297 297 297 296 296 296 297 297 298 298 299 300 301 302 302 302 302 301 301 300 300 300 300 300 299 300 300 300 300 300 300 300 300 300 300 300
321 321 322 322 322 322 322 322 322 322 322 322 322 321 321 319 318 318 318 318 317 317 317 316 315 314 312 311 309 308 308 307 306 306 305 305 305 304 303 301 300 299 297 296 295 294 293 293 293 294 294 294 294 294 295 295 296 296 296 296 297 298 298 299 300 299 299 298 298 298 297 297 298 298 298 299 298 298 298 298 299 299 299 299 299
320 320 321 321 321 321 321 320 320 320 320 320 320 319 318 318 317 316 316 316 316 315 314 312 310 309 308 307 306 305 305 304 303 302 301 300 299 297 296 294 293 293 292 291 291 291 290 290 291 291 292 292 292 292 293 294 294 295 295 295 295 296 296 297 297 298 298 297 296 296 296 296 296 296 297 297 297 297 297 297 297 297 297 298 298
317 318 319 319 319 319 319 318 318 318 318 318 318 317 317 317 316 315 315 314 312 310 308 307 306 305 304 304 303 302 300 299 297 296 294 294 293 292 291 291 291 290 290 290 290 290 289 290 290 290 290 291 291 291 291 292 292 293 293 294 294 294 295 295 295 296 297 296 295 295 295 295 295 295 295 295 295 296 296 296 296 296 296 296 297
315 316 316 316 316 316 317 317 316 316 316 316 316 316 316 315 314 313 311 309 307 305 305 304 303 302 301 299 298 296 295 294 293 292 291 291 291 290 290 290 290 289 289 289 289 289 289 289 289 289 290 290 290 290 290 290 291 292 292 292 293 293 293 294 294 294 295 295 295 294 294 294 294 294 294 294 295 295 295 295 295 295 295 295 296
315 315 315 315 315 315 315 315 315 315 315 315 315 314 313 312 310 308 306 304 304 303 302 300 299 297 296 294 293 292 291 291 291 290 290 290 290 290 289 289 289 289 289 289 289 289 289 289 289 289 289 289 289 289 289 289 290 290 291 291 291 292 292 292 293 293 294 294 294 294 293 293 293 293 293 294 294 294 294 294 294 294 294 294 294
315 315 315 315 314 314 314 314 314 314 314 312 311 309 308 307 305 304 303 303 302 299 297 295 294 293 292 292 291 291 290 290 290 289 289 289 289 289 289 289 289 289 289 289 289 289 288 288 288 288 288 288 288 289 289 289 289 289 290 290 290 291 291 291 292 292 293 293 293 293 293 292 293 293 293 293 293 293 293 293 293 293 293 293 293
314 314 313 313 312 312 312 312 312 311 309 308 306 305 304 304 303 302 301 299 296 294 293 292 291 291 291 290 290 290 289 289 289 289 289 289 289 289 289 289 289 288 288 288 288 288 288 288 288 288 288 288 288 288 288 288 289 289 289 289 290 290 290 290 291 291 292 292 292 293 293 292 292 292 292 293 293 293 293 293 293 293 293 293 293
313 312 312 311 310 309 309 308 307 306 304 303 303 303 302 301 300 298 296 294 292 291 291 290 290 290 290 289 289 289 289 289 289 289 289 289 289 289 288 288 288 288 288 288 288 288 288 288 288 287 287 287 287 287 287 288 288 288 288 289 289 289 290 290 290 290 291 291 291 292 292 292 292 292 292 293 293 293 292 293 293 293 293 293 292
310 308 308 307 306 305 304 304 303 302 302 301 301 301 299 297 295 293 292 291 290 290 290 290 290 289 289 289 289 289 289 289 289 289 289 288 288 288 288 288 287 287 287 287 287 287 287 287 287 287 287 287 287 287 286 286 287 287 288 288 288 288 289 289 289 289 290 290 290 291 291 292 292 292 292 292 292 291 292 292 292 292 292 291 291
306 305 304 303 302 302 301 301 301 300 300 299 297 296 294 293 292 291 290 290 289 289 289 289 289 289 289 289 289 289 289 288 288 288 288 288 287 287 287 287 287 287 287 287 287 287 287 287 287 287 286 286 286 286 285 285 286 286 286 287 287 287 287 288 288 288 288 289 289 289 289 290 290 290 290 290 290 290 290 290 290 291 291 291 291
303 302 301 300 300 300 300 300 299 298 296 295 293 292 291 291 290 290 289 289 289 289 289 289 289 289 289 289 288 288 288 287 287 287 287 287 287 287 287 287 287 287 287 286 286 286 286 286 286 286 285 285 285 284 284 284 284 285 285 285 285 286 286 286 287 287 287 287 287 287 287 288 288 288 288 288 288 288 288 289 289 290 290 291 291
300 299 299 298 299 299 299 298 296 294 293 292 291 290 290 290 290 289 289 289 289 289 289 289 289 289 288 288 288 287 287 287 287 287 287 287 287 287 287 286 286 286 286 286 285 285 285 285 285 284 284 284 283 283 283 283 284 284 284 285 285 285 285 285 285 285 286 286 286 286 286 287 287 287 287 287 287 287 288 288 288 289 289 289 290
298 297 297 297 297 297 296 294 292 291 291 290 289 289 289 289 289 289 289 289 289 289 289 288 288 288 288 288 288 287 287 287 287 287 286 286 286 286 286 286 286 286 285 285 285 284 284 284 283 283 283 283 282 283 283 284 284 284 284 284 284 284 284 285 285 285 285 286 286 286 286 286 286 286 286 286 287 287 287 287 287 288 288 288 288
295 295 295 294 294 294 293 291 290 290 289 289 289 289 289 289 289 289 289 289 289 289 288 288 288 288 287 287 287 287 287 286 286 286 286 286 286 286 286 286 285 285 285 284 284 284 283 283 282 282 282 282 282 282 283 284 284 284 284 284 284 284 284 284 284 285 285 285 285 286 286 286 286 286 286 287 287 287 287 287 287 288 287 287 288
293 293 292 291 291 291 291 290 289 289 289 289 289 289 289 289 289 289 289 288 288 288 288 288 287 287 287 287 287 287 286 286 286 286 286 286 286 286 286 285 285 285 284 284 283 283 283 282 282 282 281 281 281 282 283 284 284 284 284 284 284 284 284 284 284 284 284 285 285 285 285 286 286 286 287 287 287 287 287 287 287 287 287 288 288
291 291 290 290 289 290 289 289 289 288 288 289 289 289 289 289 288 288 288 288 288 288 287 287 287 287 287 286 286 286 286 286 286 285 285 286 285 285 285 285 284 284 283 283 282 282 283 282 281 281 281 281 282 283 283 284 284 284 284 284 284 284 284 284 284 284 284 285 285 285 286 286 286 286 286 287 287 287 287 287 287 288 288 287 288
289 289 289 289 289 289 289 289 289 289 288 289 289 288 288 288 288 288 288 288 287 287 287 287 286 286 286 286 286 286 286 285 285 285 285 285 285 284 284 284 283 282 282 281 281 282 282 281 280 280 280 281 282 283 284 284 284 284 284 284 284 284 284 284 284 285 285 285 285 285 286 286 286 286 286 286 287 287 287 287 287 287 288 288 288
288 289 288 288 288 289 289 289 289 288 289 289 288 288 288 288 287 287 287 287 287 286 286 286 286 285 285 285 285 285 285 285 285 284 284 284 283 283 283 282 281 280 280 280 280 280 280 280 280 280 280 281 282 283 284 284 284 284 284 284 284 283 284 284 285 285 285 285 285 285 286 286 286 286 286 286 287 287 287 287 287 287 287 287 288
289 289 288 288 288 288 288 289 288 288 289 288 288 288 288 287 287 287 287 287 286 286 285 285 285 285 285 285 285 285 285 284 283 283 283 282 282 282 281 280 280 279 279 279 279 279 279 279 279 280 281 282 283 283 283 284 284 284 284 283 283 284 284 284 284 284 284 285 285 286 286 286 286 286 286 286 286 286 286 286 286 287 287 287 287
288 288 288 288 288 288 288 288 288 288 288 288 288 287 287 287 287 287 287 286 286 285 285 285 285 284 284 284 284 284 283 283 282 281 281 281 280 280 280 279 279 279 278 278 278 278 279 279 279 280 281 282 283 283 283 283 283 283 283 283 283 283 283 283 283 283 284 285 285 285 285 285 285 285 285 285 285 285 285 285 285 285 286 286 286
287 287 287 287 287 288 288 288 288 288 288 288 288 287 286 286 286 286 286 286 285 285 285 284 284 284 283 283 282 282 282 281 281 280 280 279 279 279 279 279 279 278 278 278 278 278 278 279 279 280 281 282 282 282 282 282 282 282 282 282 282 282 281 282 282 283 283 284 284 285 284 284 284 284 284 284 284 284 284 284 284 284 285 285 285
287 286 287 287 287 287 287 287 288 288 287 287 287 287 286 286 286 286 286 286 285 285 284 284 283 282 281 281 281 281 280 280 279 279 279 278 279 279 279 279 278 278 278 278 278 278 278 279 279 280 281 281 281 281 281 280 280 280 280 280 280 280 280 280 281 282 282 283 283 283 283 283 283 283 283 283 283 283 283 283 283 284 284 284 284
285 285 286 286 287 287 287 287 287 287 287 286 286 286 286 285 285 285 285 285 285 284 283 283 282 281 281 280 280 279 279 279 278 278 278 278 278 278 278 278 278 278 278 278 277 277 278 278 279 280 280 280 280 279 279 279 279 278 278 278 278 278 278 279 279 280 281 282 282 282 282 282 282 283 283 283 283 283 283 283 283 283 283 283 283
285 286 286 286 287 287 286 286 286 286 286 286 286 286 285 285 285 284 284 285 285 284 282 282 282 281 279 279 278 277 277 277 276 276 277 277 277 277 278 278 279 278 278 277 277 277 278 278 278 279 278 278 278 278 277 277 276 276 276 276 276 276 277 277 279 280 280 281 281 281 281 281 281 282 282 283 283 283 283 282 282 283 283 283 282
285 286 286 286 286 285 285 284 284 285 285 285 286 285 285 285 285 284 284 284 284 283 282 281 280 279 278 277 276 276 275 275 275 275 276 276 276 277 278 279 278 278 277 277 277 277 277 278 278 277 277 277 277 276 275 275 274 274 274 274 274 274 275 276 277 279 279 280 280 280 280 280 281 281 281 282 283 283 282 282 282 282 282 282 282
285 285 285 285 284 284 284 284 284 284 284 284 284 284 284 284 284 284 283 283 282 281 280 279 277 277 276 276 275 275 275 275 274 275 275 275 275 276 277 277 277 277 277 276 276 276 277 277 277 277 276 275 275 275 274 273 273 273 273 273 273 273 273 274 275 277 278 278 278 279 279 279 280 280 281 281 282 282 281 281 282 282 282 281 281
286 285 285 284 284 284 285 285 285 284 284 283 283 283 283 284 284 283 282 282 282 280 279 277 276 277 276 276 275 275 274 274 274 274 275 275 275 275 276 276 275 275 275 275 275 276 276 276 276 276 275 274 273 273 272 272 272 271 271 271 271 271 272 272 273 274 275 276 277 278 279 278 279 279 280 280 280 280 280 280 281 281 281 281 281
285 284 284 284 284 284 284 284 284 283 283 282 282 282 282 282 282 281 280 280 280 280 279 277 276 277 277 276 275 275 274 274 274 274 274 274 274 274 274 274 274 274 274 275 275 275 276 275 275 274 272 271 271 271 271 270 270 270 270 270 270 270 270 271 271 271 272 274 276 277 277 277 278 278 279 279 279 279 279 280 280 280 280 281 281
283 283 283 283 283 283 283 282 282 282 282 282 281 280 279 279 279 279 278 278 277 278 278 277 276 276 276 276 275 275 275 274 274 273 274 274 275 275 275 275 275 274 274 274 274 274 274 273 271 270 269 269 270 270 270 269 269 269 268 268 269 269 269 270 270 270 271 273 274 274 275 276 277 277 277 278 278 278 278 279 280 280 280 280 280
282 282 282 283 283 282 282 282 282 282 282 281 280 279 278 277 277 277 277 277 276 276 275 275 275 275 276 275 274 274 274 274 273 273 274 274 275 275 275 275 275 274 274 273 274 273 271 269 268 267 267 267 268 268 268 268 268 267 267 267 268 268 268 268 268 269 270 271 271 271 272 274 275 275 276 276 277 277 278 278 279 280 280 280 280
284 283 283 282 282 282 282 282 282 281 281 280 279 279 277 276 276 276 276 276 275 275 275 275 274 274 275 275 275 274 273 273 273 274 274 275 275 275 275 274 274 274 273 273 273 271 268 266 266 266 266 266 266 267 267 267 266 266 266 266 267 267 267 267 267 268 269 270 269 270 270 271 272 273 274 275 276 276 277 278 279 279 279 279 279
285 284 283 282 282 282 282 283 282 281 281 280 279 278 278 277 277 276 275 274 274 274 274 274 273 273 274 274 274 274 273 273 274 274 274 275 275 274 274 274 273 273 273 273 272 269 266 265 265 265 264 265 265 265 266 265 265 265 265 265 265 266 266 266 266 267 268 268 268 268 269 269 270 271 273 274 275 276 277 277 278 278 279 279 279
284 285 284 284 284 283 283 282 282 281 280 280 279 279 279 279 278 277 275 274 273 273 273 273 273 273 273 273 273 273 273 273 274 274 274 274 274 274 273 273 273 272 272 272 270 268 266 265 264 264 264 264 264 264 264 264 264 264 264 264 264 265 265 265 265 266 267 267 267 267 267 268 269 270 271 273 274 275 276 277 277 278 278 279 279
283 284 284 284 284 283 282 282 282 281 280 280 279 279 278 278 278 277 277 276 274 273 273 273 273 273 273 273 272 272 272 273 273 273 273 273 273 273 273 273 273 272 272 271 270 268 266 265 265 265 265 264 264 264 264 264 264 263 263 263 264 264 264 264 265 266 266 265 266 266 266 267 268 268 269 271 273 275 276 276 277 277 278 278 278
282 282 283 282 282 282 282 281 281 281 281 280 279 279 278 277 277 277 277 276 275 274 274 273 273 273 273 273 273 272 272 273 273 272 272 272 272 272 272 272 271 271 270 270 269 268 267 266 266 266 265 264 264 264 264 264 264 264 263 263 263 263 264 264 265 265 265 265 265 265 265 266 267 267 268 269 272 274 275 275 276 276 277 277 277
282 282 282 282 281 281 281 280 280 280 280 280 278 277 276 276 276 276 275 275 274 274 274 273 273 273 273 273 273 272 272 272 272 271 271 271 270 270 270 270 269 269 269 268 267 267 267 266 266 265 265 265 264 264 263 264 264 264 264 263 263 263 263 264 264 264 264 264 264 264 264 265 266 266 267 268 270 273 274 275 275 275 276 276 276
281 281 281 281 281 281 280 280 279 279 279 278 277 276 275 275 274 274 275 274 274 274 273 273 273 273 273 273 272 272 272 271 271 270 270 270 270 270 269 269 268 268 268 267 266 266 266 265 265 264 264 264 264 264 263 263 263 263 263 263 263 263 263 263 263 263 263 263 263 263 263 264 265 265 266 267 269 272 274 274 274 275 275 275 275
280 280 280 281 280 280 280 279 278 278 277 276 275 274 274 274 274 274 274 274 274 274 274 273 273 273 272 272 272 272 271 271 271 271 271 270 269 269 269 268 268 268 267 267 266 266 266 265 264 264 264 264 263 263 263 263 262 262 263 263 263 263 263 262 263 263 263 263 262 262 263 263 264 265 265 266 268 271 273 273 274 274 275 275 274
279 279 279 279 279 278 278 278 278 276 275 274 273 273 274 275 275 275 275 275 275 274 274 273 273 273 273 272 272 271 271 271 271 271 271 270 269 269 269 268 268 267 267 267 266 266 266 266 265 264 264 263 263 263 263 262 262 262 262 262 262 262 262 262 262 262 262 262 262 262 262 263 263 264 265 266 268 270 272 272 273 274 274 274 273
279 278 278 278 278 277 276 276 276 275 274 273 273 273 274 275 275 275 275 275 274 274 273 273 272 272 272 271 271 271 271 271 271 270 270 270 269 269 268 268 267 267 267 266 266 266 266 266 266 265 265 264 263 263 262 262 262 262 262 262 262 262 262 262 262 262 261 261 261 261 262 262 263 263 264 265 266 269 270 272 272 273 273 273 273
278 278 277 276 276 275 275 274 274 273 272 272 273 273 274 275 275 274 274 274 274 273 273 272 271 271 270 270 269 270 270 270 270 270 269 269 269 268 268 267 267 266 266 266 265 265 265 266 266 266 265 264 264 263 262 262 262 262 261 261 261 261 261 261 261 261 261 261 261 261 261 261 262 262 263 264 265 267 269 271 272 272 273 273 272
277 277 276 275 275 274 274 273 272 271 271 271 272 273 274 274 274 274 274 273 273 272 272 271 271 270 269 269 269 269 269 269 269 269 269 269 268 268 267 267 267 266 266 265 265 265 264 265 265 265 265 264 264 263 263 263 262 262 261 261 261 261 261 261 261 260 260 260 260 260 260 261 261 262 262 263 264 266 268 270 271 271 272 272 272
276 275 274 274 273 272 272 272 272 271 271 272 272 273 273 273 273 273 273 272 272 272 272 271 270 269 269 268 268 268 269 269 269 269 268 268 268 268 267 267 267 267 266 266 265 265 264 264 264 265 265 265 264 263 263 263 262 262 261 261 260 261 261 261 261 260 260 259 260 260 260 260 261 261 262 263 264 265 267 268 269 270 271 272 271
274 273 273 272 271 271 271 271 271 271 271 271 271 272 272 272 272 272 272 271 271 271 271 270 270 269 268 268 268 268 269 268 268 268 268 268 268 268 268 267 267 267 267 266 266 265 265 265 264 264 265 265 265 264 264 263 263 262 262 261 261 261 261 261 261 260 260 259 259 260 260 260 260 261 262 262 263 264 266 267 268 269 270 271 271
273 273 272 272 271 270 270 270 270 270 270 271 271 271 271 271 271 271 271 271 270 270 270 270 269 269 268 268 268 268 268 268 268 268 268 268 268 268 268 267 267 267 267 267 266 266 266 265 265 265 265 265 265 265 265 264 264 263 263 262 262 262 261 261 261 261 260 260 259 259 259 260 260 261 262 262 262 263 264 265 266 268 269 270 271
273 273 272 271 270 270 269 269 269 270 270 270 270 270 271 271 270 270 270 270 270 269 269 269 268 268 268 268 268 268 268 268 268 268 268 268 268 268 267 267 267 267 267 267 267 266 266 266 266 265 265 265 265 265 265 265 265 264 264 263 262 262 262 261 261 261 261 260 259 259 259 259 259 260 261 262 262 262 263 264 265 266 267 269 270
272 271 271 270 270 269 269 269 269 269 269 269 269 270 270 270 270 269 269 269 269 269 268 268 268 268 268 268 268 268 267 267 267 267 268 268 267 267 267 267 267 267 268 267 267 266 266 266 266 266 265 265 265 266 266 266 265 265 265 264 263 263 262 262 262 262 261 260 259 259 259 259 259 260 261 262 262 262 262 263 264 265 266 267 268
270 270 270 270 270 269 269 270 269 269 268 268 268 268 269 269 269 269 268 268 268 268 268 268 267 267 267 267 267 267 267 267 267 267 267 267 267 267 267 267 267 267 267 268 267 267 267 267 266 266 266 266 266 266 266 266 266 266 265 265 264 263 263 262 262 262 261 260 259 259 259 259 259 260 261 262 262 262 263 263 264 264 265 266 267
269 269 269 269 269 269 269 269 269 269 268 268 269 269 268 268 268 268 267 267 267 267 267 267 267 267 267 267 267 267 266 267 267 267 267 267 267 267 267 267 267 267 267 267 267 267 267 267 267 266 266 266 266 266 266 266 266 266 265 265 265 264 263 263 262 261 261 260 259 259 259 259 259 260 261 262 262 262 263 263 263 264 264 265 266
268 268 268 268 268 269 269 269 270 270 269 269 270 269 269 269 268 268 267 267 267 267 267 267 267 267 267 267 267 267 267 267 267 267 267 267 267 266 266 266 267 267 267 267 267 267 267 267 267 266 266 266 266 266 266 265 265 265 265 265 265 264 264 263 262 261 261 260 259 259 259 259 259 260 261 261 262 262 262 263 263 263 264 265 265
Wind_Speed
15 16 16 16 17 16 16 17 17 17 18 18 18 16 14 12 10 10 10 10 9 9 10 10 10 10 9 9 7 6 5 4 4 3 3 2 1 1 1 2 3 4 5 5 6 8 10 11 13 14 14 16 17 17 17 17 17 17 16 18 21 19 21 24 17 22 41 42 33 34 35 34 38 35 31 36 38 36 38 39 40 41 43 44 45
16 16 17 17 17 18 18 17 17 17 17 16 15 13 12 11 12 12 12 11 10 10 10 10 9 8 8 7 6 6 6 5 5 5 5 5 5 5 4 4 5 5 6 8 9 11 13 14 16 16 17 18 19 19 20 20 19 21 21 19 22 21 18 22 23 21 33 44 40 36 35 34 37 37 32 34 39 39 39 40 40 41 42 42 44
18 18 18 18 17 17 17 15 13 13 13 12 11 12 13 13 12 11 11 11 11 10 10 9 8 8 9 9 9 10 10 10 10 10 10 10 9 8 8 8 9 9 10 11 12 13 14 15 15 16 17 18 20 20 20 21 21 22 23 22 22 24 21 20 24 24 28 41 46 41 37 35 37 38 35 35 39 41 42 41 40 41 42 41 42
16 16 17 17 16 15 15 14 12 12 13 13 14 15 16 15 13 13 13 12 11 11 10 11 12 13 14 14 14 14 14 13 13 12 12 11 10 10 10 10 11 11 12 13 13 14 14 15 16 16 17 18 20 21 21 22 23 23 24 25 23 24 24 21 23 26 27 35 47 48 42 39 40 39 36 36 38 38 39 41 41 41 43 42 41
14 14 15 16 17 15 15 15 16 16 17 18 18 17 16 15 14 13 14 13 14 15 15 16 17 18 18 17 17 16 15 14 13 13 12 11 11 11 11 11 11 12 13 13 13 14 14 14 16 17 18 20 21 22 23 23 25 25 25 26 26 25 27 24 23 26 27 31 42 49 47 42 41 39 34 34 38 39 39 41 40 40 43 43 41
16 16 16 17 18 18 18 19 19 19 19 18 17 17 16 15 15 15 16 18 19 19 20 20 20 20 19 18 17 16 15 14 13 13 12 11 11 11 11 11 12 13 13 13 12 13 13 13 15 16 17 20 21 22 24 24 25 26 26 27 28 27 28 27 25 26 28 31 36 42 47 45 41 38 34 32 35 38 40 43 44 40 38 40 42
19 19 20 20 21 21 21 20 20 20 19 18 18 17 17 18 19 20 20 21 22 22 22 22 21 20 19 17 16 15 14 13 12 12 12 11 11 11 11 12 12 12 12 12 12 12 13 14 15 16 17 19 20 21 22 24 25 26 26 27 29 28 28 28 28 27 28 32 34 35 41 45 42 39 38 36 36 37 37 38 42 44 44 44 46
22 22 22 23 23 22 22 21 20 20 20 20 20 21 22 22 23 23 23 24 24 23 23 22 21 20 18 17 16 14 13 13 12 12 12 11 12 12 12 12 12 12 13 13 14 14 15 16 16 17 18 18 19 20 21 22 25 27 27 27 28 29 29 28 28 27 27 29 32 33 37 42 42 40 40 36 31 31 33 32 34 42 48 49 47
24 24 24 24 24 23 23 22 22 22 22 24 25 25 26 26 26 26 26 25 24 23 22 21 20 19 18 17 16 14 13 14 13 12 12 12 12 12 12 12 13 14 14 15 16 16 17 19 19 20 20 20 20 20 20 20 22 25 26 27 28 29 30 29 27 26 27 28 31 32 31 33 35 35 35 31 27 31 37 35 33 37 42 46 50
24 25 25 25 25 25 24 24 25 25 26 27 28 28 28 28 28 27 26 25 23 22 21 20 20 19 18 17 16 15 14 14 13 12 13 12 12 12 12 13 14 15 16 17 18 19 20 21 22 22 23 23 23 23 23 22 21 22 23 24 26 28 30 30 28 26 26 26 29 31 27 27 33 35 33 33 34 37 37 34 32 35 37 37 43
26 26 27 27 27 27 27 28 28 28 29 29 30 30 30 29 28 27 26 25 23 22 21 21 20 19 18 17 16 16 15 14 13 12 12 12 12 13 14 15 16 17 18 19 20 21 22 23 24 24 25 25 26 25 25 24 23 23 23 23 23 24 26 29 30 29 28 27 30 32 28 28 36 39 37 37 37 37 38 38 36 35 33 25 24
28 28 28 29 29 30 30 31 31 31 31 30 30 30 29 29 28 27 26 25 23 22 21 21 20 19 18 17 16 16 15 13 12 12 12 12 13 14 15 16 17 18 19 20 21 22 23 23 24 24 24 25 25 26 25 25 25 25 25 24 23 22 22 24 27 30 31 30 32 33 31 31 35 37 39 40 40 41 42 42 38 34 32 25 20
31 30 30 30 31 33 33 33 33 32 31 31 30 30 29 28 27 26 25 24 23 22 22 21 20 19 17 16 16 15 14 12 12 12 13 13 14 15 16 17 18 19 20 20 21 21 22 23 24 24 24 24 25 25 25 27 28 27 27 27 25 24 23 23 25 27 29 31 32 34 34 34 35 37 41 41 42 43 41 39 39 37 34 32 31
32 32 32 31 33 35 35 35 34 32 32 31 30 30 29 28 27 25 25 24 23 22 22 20 19 18 16 15 14 14 14 13 12 12 13 14 15 16 18 19 19 19 20 20 20 21 21 22 23 24 25 25 25 25 26 28 29 29 30 28 27 27 25 25 26 26 27 29 31 35 37 37 37 40 43 42 41 41 39 39 40 39 38 41 44
32 32 32 32 33 35 35 35 34 33 32 31 30 29 28 27 26 25 24 24 23 22 21 19 18 17 15 13 13 13 13 12 12 12 13 14 16 17 18 19 19 19 20 20 20 21 21 21 22 23 25 25 24 23 25 28 29 30 32 31 29 28 27 26 27 27 27 28 30 34 38 39 40 42 43 44 43 43 43 43 44 43 44 45 44
32 32 32 31 32 34 35 35 34 32 31 30 30 29 28 27 26 25 24 23 22 21 20 18 17 16 14 12 12 13 13 12 12 13 14 15 16 18 19 20 20 20 21 21 22 22 22 22 23 24 24 24 23 22 24 27 30 32 33 33 32 31 30 29 28 28 29 31 33 35 37 39 40 42 44 45 45 46 47 45 45 45 42 34 30
31 32 32 31 32 33 34 35 34 32 31 30 30 29 27 27 25 24 24 23 22 21 19 18 17 15 14 13 12 13 13 12 13 14 15 16 17 19 20 20 21 21 22 22 22 22 22 23 23 23 24 23 22 22 24 27 30 32 33 34 35 35 34 33 31 30 32 34 35 36 38 39 40 41 43 43 44 45 44 40 40 41 35 21 16
30 30 30 30 31 32 33 33 32 31 30 30 29 28 27 26 25 23 23 22 21 20 18 17 16 14 13 13 12 12 12 12 12 13 15 16 17 19 20 21 21 21 22 22 22 22 22 22 22 22 22 22 22 23 24 27 30 31 32 34 36 37 38 38 37 37 38 37 37 37 37 39 39 39 39 40 40 41 39 38 38 39 34 24 20
30 31 31 31 32 32 32 32 31 31 30 29 29 28 27 26 25 23 22 21 21 20 18 17 16 15 13 12 12 11 11 12 12 13 15 15 17 19 20 21 21 21 22 22 22 22 21 22 22 21 21 22 23 25 25 26 28 30 31 32 34 35 39 40 41 41 42 41 40 39 38 37 36 36 35 36 36 36 36 37 37 36 35 32 30
32 33 32 32 32 32 31 31 30 30 30 29 28 28 26 25 24 23 21 21 21 20 18 17 16 15 13 11 11 11 11 12 12 13 14 15 16 18 19 20 20 20 21 21 21 21 22 22 24 23 22 23 25 26 25 25 26 28 29 30 31 34 38 40 40 41 42 42 40 39 38 36 35 34 32 32 33 33 34 35 35 35 34 33 33
34 34 33 32 32 31 30 30 29 29 29 29 28 27 25 24 23 22 22 21 21 20 18 17 16 14 12 11 11 11 11 11 12 13 14 15 15 17 18 18 17 18 19 19 19 21 22 23 25 25 25 26 27 26 25 25 24 24 26 28 29 32 35 37 38 38 38 39 38 38 37 34 33 33 32 32 32 32 33 34 35 35 34 33 34
35 34 33 32 31 30 30 29 29 29 28 28 27 26 25 24 22 22 22 21 20 19 18 16 15 14 13 11 11 11 11 11 12 13 14 14 14 15 16 16 15 16 18 19 20 22 23 25 26 26 26 26 25 25 24 24 23 23 24 26 27 29 30 31 32 33 34 35 35 36 37 35 34 35 35 35 35 35 36 36 35 35 35 34 34
34 33 32 31 30 29 29 28 28 28 27 27 27 26 25 23 22 21 21 20 20 19 18 16 15 14 13 12 11 11 10 11 11 12 13 13 14 14 15 15 15 16 18 20 21 23 24 25 26 26 25 24 23 23 22 22 22 23 24 25 26 27 27 27 28 30 31 32 33 34 35 36 36 36 37 39 40 40 40 38 37 37 36 37 36
32 31 31 30 29 29 28 28 28 28 27 26 26 26 25 23 22 20 19 19 19 19 18 16 15 14 13 11 11 10 10 11 11 11 13 14 14 14 15 15 16 17 18 20 21 22 24 25 24 23 22 21 21 21 20 20 22 24 25 26 27 27 27 27 28 29 29 30 31 32 34 36 37 37 39 41 41 41 41 40 39 38 38 38 38
31 31 31 30 30 29 29 28 28 27 26 26 25 25 24 23 22 21 19 18 18 18 18 16 14 14 13 11 10 9 9 11 11 11 13 14 14 15 16 16 17 18 19 19 20 21 22 22 22 21 21 21 21 21 21 21 23 24 25 27 28 29 28 29 29 29 29 30 31 32 34 38 40 39 40 40 38 38 40 41 41 41 39 38 38
32 32 31 31 31 30 29 29 28 27 26 24 23 23 23 22 21 21 19 18 17 17 17 16 15 13 12 11 9 9 9 10 10 12 13 14 14 15 16 17 18 19 19 20 21 21 21 22 22 22 21 21 20 20 21 23 24 25 26 27 28 29 29 29 29 28 28 30 31 33 35 38 40 39 39 37 35 35 37 39 40 40 39 38 37
33 33 32 31 31 30 30 29 28 27 26 25 23 22 21 21 20 20 19 18 18 17 16 16 15 14 12 11 9 9 10 10 11 12 13 14 15 16 17 18 19 20 21 22 22 22 22 21 21 22 22 20 19 19 21 23 26 27 29 29 28 28 28 27 26 25 26 28 31 34 36 36 37 37 37 35 34 34 35 35 35 35 37 36 33
33 33 32 32 31 30 30 29 29 28 26 25 24 22 21 20 19 18 17 16 16 17 16 15 14 13 12 11 10 9 9 9 10 11 12 12 14 15 16 17 18 20 20 21 21 20 20 20 21 23 24 23 22 22 23 24 25 26 28 29 28 28 28 27 25 24 25 27 29 32 34 35 34 35 36 35 33 33 34 34 32 32 34 32 27
33 33 32 31 31 30 29 29 28 28 27 25 22 20 19 18 18 17 15 13 11 12 13 13 13 12 11 10 9 9 8 8 7 8 8 9 11 12 14 14 15 17 17 18 18 18 19 20 22 24 25 24 24 24 25 26 27 27 27 28 28 28 28 28 27 28 28 28 28 30 32 32 33 34 34 33 33 33 34 34 32 31 31 28 23
33 32 31 31 30 30 29 28 27 27 26 25 23 20 17 15 16 16 15 12 9 8 9 10 11 10 10 9 8 8 7 6 5 6 6 7 9 10 11 12 12 14 14 14 14 16 18 21 21 21 23 23 22 22 24 25 27 29 29 28 27 27 27 27 28 30 29 27 27 29 30 30 31 31 30 31 33 34 34 34 32 30 28 25 23
34 32 32 31 31 30 29 28 27 26 25 25 25 23 21 17 14 13 13 12 11 9 9 10 10 9 9 9 9 8 7 6 5 5 5 6 8 10 10 10 11 12 13 13 14 16 18 19 19 19 20 20 18 19 21 23 25 27 29 29 28 26 27 28 30 30 28 26 26 28 29 29 29 29 29 30 31 34 35 34 32 29 27 25 23
35 34 33 32 31 30 29 28 28 27 27 26 26 25 25 22 18 13 11 10 11 11 11 11 11 9 8 8 9 8 8 6 5 4 4 6 8 10 10 9 9 10 11 13 15 17 16 16 17 17 17 18 17 18 19 21 23 26 27 27 27 26 28 30 31 29 27 26 27 28 29 29 29 29 29 29 31 33 34 33 31 30 27 25 23
35 35 35 33 32 31 30 30 30 30 30 30 28 27 27 27 24 20 15 11 10 11 12 12 11 10 9 8 8 8 7 6 4 3 4 5 7 8 8 8 8 10 11 13 16 16 14 14 15 15 15 16 17 17 17 20 23 25 25 25 25 26 29 31 30 27 25 25 27 28 28 29 30 30 30 30 31 32 32 31 31 30 27 24 24
35 35 36 35 34 34 32 32 32 31 31 31 30 28 27 26 27 26 24 19 15 14 14 14 12 11 10 9 8 7 7 5 4 3 3 4 5 7 6 6 7 9 12 14 15 15 13 13 14 14 15 16 17 17 18 21 23 24 25 25 25 27 30 31 29 27 27 28 29 29 29 30 31 31 31 30 30 30 31 31 30 29 26 24 24
33 34 34 35 35 34 33 33 32 32 32 31 30 28 27 25 25 26 26 24 22 19 17 15 13 11 10 10 9 7 6 5 4 3 2 3 5 5 4 5 7 9 11 13 14 13 13 13 14 15 16 17 18 19 20 22 23 24 25 26 26 27 29 28 27 27 28 29 29 29 30 30 30 31 33 31 29 28 30 31 31 29 27 25 24
32 32 33 34 34 34 33 32 32 31 31 31 29 28 27 26 26 25 24 23 22 20 18 16 14 12 10 10 9 7 6 4 3 2 1 3 4 4 5 6 8 10 10 11 12 12 13 13 14 15 16 18 19 20 21 22 24 24 25 25 25 27 27 27 26 27 28 29 29 29 30 30 31 33 34 31 28 28 30 31 31 29 27 26 24
33 33 34 35 34 33 32 32 31 30 29 29 29 29 28 26 26 25 24 22 21 19 18 17 15 13 11 9 9 8 7 4 3 2 1 1 2 4 6 7 8 8 8 9 11 12 14 14 14 15 16 18 19 20 21 22 23 24 25 25 25 26 25 24 25 26 27 28 29 30 31 31 32 33 34 31 28 27 29 31 30 29 28 27 25
34 34 35 35 34 33 32 31 30 29 29 29 29 29 28 27 26 25 24 23 21 19 18 17 16 14 13 11 9 8 7 5 4 4 2 1 2 4 6 7 7 7 7 8 10 12 14 15 15 16 17 17 18 19 21 22 23 24 25 25 26 26 24 23 24 26 27 28 30 30 31 32 33 34 34 32 29 27 28 31 30 29 29 28 25
34 34 34 34 33 33 33 32 32 31 31 30 30 29 28 28 26 25 24 22 21 20 18 17 16 16 14 12 10 8 7 7 6 5 2 1 3 5 6 6 6 6 7 7 9 11 13 15 16 17 18 18 18 19 20 21 22 23 24 25 26 27 26 25 26 27 27 29 31 31 31 32 34 34 34 33 29 27 29 31 30 27 26 25 24
36 35 34 34 34 33 33 33 33 33 33 32 31 30 29 28 27 26 25 23 22 20 19 18 17 16 14 12 10 9 8 7 5 3 1 1 3 4 5 6 6 7 7 7 8 10 12 14 16 18 19 19 19 19 19 20 21 22 23 23 24 26 26 25 25 26 27 28 30 32 32 32 34 34 34 33 30 27 28 29 29 27 26 25 24
36 35 35 35 34 34 34 34 34 35 34 34 33 32 30 28 27 25 24 23 22 20 19 18 16 15 13 12 10 9 8 6 4 3 2 2 2 4 5 5 6 7 7 8 8 9 11 13 15 17 19 19 19 19 19 19 20 21 22 23 23 24 25 24 24 26 27 28 30 31 31 32 33 32 33 34 31 28 27 28 28 27 27 26 25
38 37 36 36 35 35 35 35 35 34 33 33 32 31 30 28 26 25 24 23 22 20 19 18 16 15 13 12 11 10 8 6 5 4 4 3 4 4 4 5 7 8 8 9 9 10 11 12 13 16 18 19 19 19 19 19 19 20 21 22 23 24 25 24 24 25 26 28 30 31 31 31 32 32 33 34 31 27 27 28 27 27 27 26 25
39 38 37 36 36 36 36 35 34 33 33 33 31 30 29 27 26 25 24 23 22 21 19 18 17 15 14 13 12 11 9 8 7 6 6 5 6 6 5 6 7 9 10 10 10 11 13 14 14 15 17 18 19 20 20 19 19 19 20 21 22 23 24 24 24 25 25 27 30 31 30 31 32 32 33 34 30 26 26 27 27 26 26 26 25
38 38 36 35 35 35 34 34 34 34 34 32 30 29 28 27 26 25 24 24 23 21 20 18 17 16 15 14 13 12 11 9 9 8 8 7 7 7 6 7 9 9 10 11 11 12 14 15 16 16 17 18 19 20 20 20 19 19 20 20 21 22 23 23 24 24 24 25 27 29 30 31 32 32 33 33 30 26 25 25 25 25 25 25 24
38 37 35 34 33 33 33 33 34 33 32 31 29 29 28 27 26 26 25 24 23 21 20 19 18 17 17 16 15 13 12 11 11 10 10 9 8 7 7 8 9 10 11 11 12 13 14 16 17 18 18 18 18 19 20 20 20 20 19 20 21 22 22 22 23 23 22 23 24 26 28 29 31 31 31 31 29 25 24 24 25 24 24 25 24
38 36 35 34 34 34 33 33 33 33 32 31 31 30 29 29 28 27 26 25 23 21 20 20 19 18 18 16 15 14 13 12 12 12 11 10 9 8 8 9 10 10 11 12 12 13 14 15 16 18 18 19 18 19 19 20 20 20 20 20 20 21 20 20 21 22 21 21 22 24 26 27 28 30 30 30 28 26 25 26 26 24 23 24 23
38 37 36 35 34 32 32 32 32 32 32 31 31 30 30 29 28 27 26 24 22 21 21 20 20 19 18 17 16 15 14 13 13 13 12 11 10 9 9 10 10 11 11 11 12 13 13 14 15 16 18 18 19 19 19 19 20 21 21 20 20 20 20 19 20 21 20 20 20 22 24 25 26 28 29 28 27 27 27 28 27 25 23 23 23
38 38 36 34 33 31 31 31 31 31 30 29 29 28 28 27 27 26 25 24 23 22 22 21 20 20 19 18 17 16 15 14 14 13 12 12 10 10 10 11 11 11 12 11 12 12 13 14 15 16 17 18 18 19 19 20 20 20 21 21 20 20 20 20 20 20 19 19 20 21 23 23 25 26 27 26 26 26 27 27 27 26 24 23 22
39 38 36 35 34 33 33 32 32 30 29 27 26 25 25 24 25 25 24 24 23 23 22 21 21 20 19 18 17 16 15 15 15 14 13 12 12 11 12 12 12 12 12 12 12 13 14 15 16 16 17 18 18 19 19 20 20 21 21 21 21 21 20 20 20 19 18 18 19 21 22 23 24 25 24 24 23 24 25 25 26 25 24 23 22
39 38 37 36 34 33 32 31 30 29 28 27 26 25 24 24 24 25 24 24 24 23 22 22 21 20 19 18 17 16 16 16 15 15 14 14 13 13 13 13 13 13 13 13 13 13 14 15 16 17 18 18 18 19 20 20 20 21 21 21 22 21 21 20 20 19 18 18 19 20 21 22 23 24 23 22 22 23 24 24 24 24 23 22 21
39 38 37 35 34 33 32 31 30 30 30 29 28 27 26 25 25 26 26 25 24 23 23 22 21 20 19 18 17 17 17 17 16 16 16 15 15 14 14 15 15 14 14 14 14 14 15 16 17 18 19 19 19 20 20 21 21 21 21 21 22 21 21 20 20 20 19 18 19 20 20 21 22 24 23 21 21 22 22 23 23 23 22 21 21
Wind_Direction
180 181 179 178 176 170 168 169 169 170 170 171 172 173 180 185 184 183 179 177 181 183 185 188 192 197 198 200 201 194 192 190 188 198 191 185 187 196 308 332 345 345 354 355 347 346 345 348 352 349 341 333 328 326 323 322 319 313 313 309 299 297 294 289 286 290 294 296 296 296 300 302 301 300 301 301 301 301 300 299 299 298 296 295 295
169 170 167 167 167 162 159 159 161 165 166 168 172 176 183 182 172 169 168 171 180 188 193 192 192 194 187 177 168 156 149 140 131 126 125 121 113 104 89 74 64 47 39 29 18 12 4 1 359 352 344 336 333 334 333 331 332 327 324 322 310 304 302 294 290 289 294 298 299 300 302 303 301 302 305 304 304 304 302 300 299 297 295 295 294
163 162 161 162 162 162 164 162 161 168 171 175 178 174 173 175 178 181 181 182 185 186 188 185 175 168 156 144 137 132 126 122 120 117 115 110 104 98 86 73 63 49 39 30 20 15 9 2 357 351 344 338 336 338 337 334 335 332 326 323 316 309 307 299 291 287 290 296 299 301 303 304 302 303 306 306 304 304 303 301 301 299 296 295 293
169 171 171 171 171 172 178 185 187 183 176 171 168 163 164 170 179 186 186 184 180 171 163 155 146 139 134 130 127 124 121 118 114 109 103 98 91 83 72 62 53 43 35 29 23 17 10 2 358 355 347 342 342 341 342 339 336 334 328 323 319 313 309 305 295 289 288 293 297 300 302 304 302 303 308 308 306 305 304 302 302 300 298 296 294
169 169 172 175 178 176 173 175 174 167 162 160 160 163 168 172 174 176 174 165 155 147 139 135 134 131 128 126 123 120 116 112 108 102 96 89 81 73 65 58 50 44 38 31 25 18 11 3 358 358 352 346 347 345 344 343 339 335 331 325 322 318 312 308 302 296 290 288 294 299 302 303 303 304 309 310 309 307 305 303 302 301 300 299 296
161 159 159 159 161 161 161 160 158 157 159 161 163 168 170 170 165 159 154 147 139 135 132 130 130 128 124 122 119 116 112 109 104 99 92 84 77 70 64 58 49 45 38 31 26 16 10 6 359 358 356 349 349 348 344 342 340 336 333 329 325 321 316 311 309 303 296 291 292 297 301 303 304 305 308 310 309 308 307 307 305 303 301 301 300
161 159 157 154 152 153 157 159 160 162 164 165 165 163 160 157 150 145 142 138 134 133 130 128 126 123 121 119 115 113 110 105 99 94 88 81 75 67 59 54 46 41 37 29 26 18 9 8 3 359 360 355 351 349 345 341 339 335 332 330 327 323 317 314 311 307 300 296 293 294 298 301 303 304 307 309 308 304 304 305 306 306 306 303 300
161 159 158 156 154 155 158 160 163 164 163 160 156 152 149 146 143 140 139 135 132 130 128 125 124 122 120 117 114 112 108 102 95 90 85 75 68 59 51 47 40 35 33 26 21 18 10 6 5 1 359 358 353 349 345 341 336 333 331 331 328 323 318 315 312 308 302 297 294 294 296 298 300 302 306 309 307 304 304 302 299 301 304 302 300
162 161 159 157 156 156 158 159 159 157 155 151 148 146 143 141 140 138 136 133 129 127 126 125 124 122 119 116 114 110 104 96 89 82 75 66 60 54 46 41 34 26 24 23 17 13 8 4 3 1 358 356 352 347 344 341 335 330 329 329 327 323 319 315 312 308 305 299 295 296 296 296 298 303 307 308 306 305 304 301 295 295 300 301 300
161 159 157 154 154 154 154 153 152 151 149 146 144 142 141 139 138 136 133 130 128 127 126 125 123 122 120 116 112 106 97 89 82 74 67 61 55 50 43 35 31 24 18 17 13 9 6 2 359 358 355 352 350 346 342 338 334 328 326 326 325 323 319 315 312 308 305 300 298 300 301 298 301 304 305 306 307 306 304 302 300 301 302 300 298
159 157 154 151 152 152 150 149 148 148 146 144 142 141 140 138 137 134 132 130 129 129 129 126 122 121 119 114 108 100 93 86 80 72 66 61 50 43 38 31 26 23 17 14 11 7 4 1 359 357 355 351 347 343 339 335 332 328 325 324 322 320 317 313 311 310 308 304 303 304 304 302 305 307 308 310 311 310 308 307 304 300 298 295 294
156 154 152 151 151 150 149 148 147 146 145 143 141 140 139 138 136 134 133 131 131 131 129 125 121 119 116 111 103 96 90 84 78 70 60 54 45 36 33 29 24 21 17 14 10 7 3 359 358 356 353 349 344 340 337 333 331 329 326 324 321 317 313 308 306 306 307 305 303 302 302 303 305 307 310 312 312 309 308 306 304 300 297 296 294
155 153 151 153 152 150 150 148 146 145 144 142 141 140 139 137 136 136 134 133 133 131 127 123 119 116 112 107 101 95 88 78 69 61 52 46 40 34 29 27 24 20 17 14 10 6 2 358 355 353 349 346 344 341 338 335 333 330 327 324 321 317 313 306 302 299 298 298 296 295 299 301 301 302 305 306 305 303 303 303 302 301 299 297 296
153 152 152 154 153 151 151 149 146 145 144 143 142 141 140 138 137 137 136 134 133 129 125 121 118 114 109 105 99 91 82 72 61 54 48 41 33 30 27 23 21 17 15 13 9 5 2 357 352 348 346 346 346 344 339 335 332 329 326 324 320 318 314 309 306 301 297 294 291 292 296 298 296 296 300 300 298 297 297 296 297 297 296 295 294
152 152 153 154 153 152 151 148 146 145 144 144 143 142 141 139 138 137 136 134 131 127 125 121 118 113 108 102 95 86 76 67 58 48 41 36 29 24 22 18 16 15 12 11 8 4 1 357 351 347 346 347 346 341 337 333 330 327 325 322 320 318 315 312 311 307 303 299 295 294 296 296 295 295 297 298 295 294 294 293 293 293 293 293 293
152 153 154 154 154 153 151 148 146 145 145 145 143 142 141 139 139 138 136 133 129 127 125 122 118 114 107 99 90 83 75 63 55 44 33 28 23 19 17 14 12 11 10 8 5 2 359 356 351 347 345 346 344 339 336 333 330 327 325 322 321 320 318 317 317 314 311 309 305 302 300 299 298 298 299 301 300 299 299 297 295 294 292 290 290
153 154 155 155 154 153 151 149 147 146 147 147 144 142 141 139 139 139 137 133 129 128 126 122 118 114 106 97 85 79 73 60 49 38 28 22 18 16 14 11 10 9 7 6 2 359 358 355 351 347 344 344 342 337 336 334 331 328 325 323 323 321 320 322 322 319 317 315 312 309 305 304 303 301 303 306 306 305 302 297 297 297 293 289 289
154 155 155 155 154 153 152 152 150 149 149 148 145 143 141 140 140 140 138 135 130 128 126 122 118 111 103 95 83 76 68 56 45 35 27 21 17 16 13 10 10 7 3 3 360 357 355 352 349 346 342 340 339 337 337 336 332 329 327 325 323 321 322 324 323 322 321 318 315 312 309 309 308 307 308 309 310 309 303 296 297 296 291 288 291
157 157 157 156 156 155 155 155 154 152 150 148 145 144 143 141 141 141 139 135 131 130 128 124 116 107 99 92 82 73 62 52 44 36 31 25 18 16 15 12 10 4 359 358 355 353 352 349 348 346 340 338 338 337 337 336 333 330 328 326 321 319 321 323 322 321 321 318 316 315 313 313 313 312 312 312 313 312 307 302 302 300 294 293 297
160 159 159 159 158 158 158 157 156 154 151 148 146 146 145 144 143 142 139 136 133 132 129 123 115 105 98 91 81 73 63 54 47 37 32 28 20 16 16 14 8 359 355 352 348 347 348 346 347 347 342 337 337 337 337 337 334 331 330 325 318 317 320 321 320 320 319 317 316 316 315 317 318 317 316 316 316 316 314 312 311 307 303 301 302
162 162 161 161 160 160 159 158 156 154 152 150 148 147 146 146 145 143 141 139 135 132 128 121 114 106 99 91 81 74 65 56 50 41 34 30 23 17 16 15 6 354 351 349 346 345 344 343 346 346 341 337 337 338 338 338 337 334 331 326 320 319 321 321 320 320 320 318 318 318 319 321 322 323 323 323 322 321 319 317 315 312 308 304 302
164 164 162 161 161 159 158 158 156 154 153 153 151 148 146 147 146 143 142 140 136 131 126 120 115 109 102 93 83 74 66 57 49 43 38 33 27 20 16 12 4 355 351 348 346 345 345 343 343 342 338 337 339 340 341 341 341 340 336 331 328 326 326 324 322 322 321 321 321 322 323 326 327 327 328 327 326 325 322 319 317 315 311 307 304
165 163 162 160 159 158 158 157 157 156 155 156 153 149 148 148 146 145 144 142 137 131 126 123 119 112 104 95 85 74 66 59 50 42 39 34 27 22 16 10 4 359 355 352 349 348 345 342 340 338 338 340 342 343 344 345 344 342 340 338 336 335 333 331 329 327 325 326 326 326 326 328 328 328 328 328 327 326 325 323 321 319 316 313 310
163 162 161 159 158 158 158 158 159 158 157 158 155 151 150 150 148 147 147 144 139 133 129 127 122 115 108 99 88 75 62 57 51 42 38 34 27 22 17 13 9 5 2 359 354 348 343 339 337 339 341 343 345 347 348 348 347 345 344 344 344 345 343 340 337 333 331 331 330 327 327 328 328 327 326 326 325 325 325 324 324 322 320 317 315
164 162 161 161 161 161 161 160 161 160 159 161 159 155 154 153 150 149 148 146 141 136 131 129 125 118 112 102 92 79 64 57 51 41 36 32 26 22 18 16 14 9 5 2 356 349 343 341 341 343 345 347 349 351 350 349 350 349 349 351 353 353 350 343 338 336 333 330 329 327 327 327 326 325 325 324 324 325 327 326 326 326 324 322 320
165 163 163 164 164 164 163 161 161 161 161 163 162 159 158 157 154 151 150 147 143 139 136 132 126 119 114 109 101 87 71 57 46 38 35 28 22 19 17 15 14 11 7 3 358 352 349 348 348 348 351 352 353 352 350 350 352 353 354 355 357 356 353 346 339 335 331 328 327 326 325 325 325 325 326 326 325 326 328 327 325 326 327 325 323
166 165 166 166 166 166 166 164 164 164 164 165 162 159 159 160 158 155 154 151 145 141 138 134 129 125 121 116 106 87 71 56 42 36 33 26 17 15 16 15 11 9 7 2 357 354 351 350 350 352 355 357 355 354 353 354 354 354 354 355 355 354 353 348 341 335 330 327 325 324 324 325 326 327 328 328 326 327 329 327 324 323 326 325 321
169 169 169 169 169 169 170 169 168 167 166 165 163 160 159 160 158 155 154 154 150 145 140 135 132 130 125 118 108 90 72 56 43 37 33 26 17 14 16 16 10 7 5 359 353 350 348 349 353 357 359 360 357 355 355 355 354 353 352 351 350 350 351 350 346 342 335 328 324 323 325 327 328 328 329 328 327 329 331 330 325 323 325 325 321
172 172 172 171 171 172 173 172 171 168 165 162 160 158 158 158 155 149 145 145 146 145 141 134 130 129 122 114 109 101 85 65 52 46 39 32 25 19 20 19 12 6 3 356 350 350 354 359 2 3 2 0 357 354 353 352 351 350 349 348 346 347 349 349 347 342 337 331 328 328 328 327 328 329 329 328 328 331 332 331 328 326 325 325 322
173 174 174 173 174 175 175 173 172 169 165 162 158 153 150 153 154 149 142 138 137 138 137 132 131 131 125 117 112 107 99 86 73 63 49 38 34 30 27 23 14 7 4 360 357 1 8 11 10 5 2 359 355 351 349 349 347 345 345 345 345 344 345 345 343 339 336 334 334 333 330 327 328 329 329 328 328 330 333 333 331 329 328 326 323
175 175 176 177 177 177 176 175 173 171 169 166 163 157 152 150 151 147 142 140 140 139 135 131 132 138 140 136 131 120 109 102 92 77 59 43 38 37 32 25 17 12 8 7 12 19 20 16 10 4 1 358 352 346 345 345 344 343 342 342 343 343 342 341 340 338 335 334 336 335 333 331 330 330 329 329 328 329 332 334 334 331 329 328 324
178 178 179 180 179 179 178 177 176 174 172 170 170 167 160 154 149 145 146 149 148 145 141 135 133 139 142 139 134 126 117 112 106 89 67 47 42 43 39 30 23 18 11 11 20 27 25 15 8 3 358 353 348 342 341 342 341 341 341 340 339 339 339 338 338 338 336 335 334 334 334 334 332 329 328 329 330 330 330 333 334 333 331 330 329
184 182 182 182 181 181 181 181 180 180 178 177 177 176 171 165 158 154 152 153 152 151 150 145 144 146 144 136 132 129 125 124 117 93 64 44 43 47 46 38 30 21 13 16 25 29 24 13 6 360 353 349 345 340 337 338 339 340 340 338 334 333 335 337 339 339 337 335 334 332 331 333 333 331 329 328 330 331 330 331 334 334 332 332 332
190 189 187 186 184 184 184 184 184 184 183 183 183 181 180 177 171 165 162 161 162 164 162 158 157 158 153 145 140 139 138 135 124 95 59 36 39 44 42 38 34 25 17 21 27 26 18 7 0 354 349 347 344 338 335 336 338 338 337 335 333 332 334 338 341 340 337 335 335 333 331 331 332 332 330 327 327 330 332 332 333 334 333 333 333
193 192 190 188 188 187 187 187 187 186 186 186 186 184 183 182 180 177 175 172 170 170 167 164 163 162 158 152 148 148 149 144 128 105 48 20 27 30 21 18 25 25 19 18 19 17 11 3 356 351 348 345 342 339 337 336 337 336 335 334 333 332 334 337 337 337 336 336 335 333 332 332 332 333 331 327 325 328 332 332 333 333 332 332 333
195 192 191 190 190 190 189 188 188 188 188 187 187 186 184 184 183 183 182 178 173 170 168 168 167 166 167 165 161 160 163 157 142 126 55 16 14 10 10 20 28 26 18 11 7 3 1 358 353 349 346 341 339 339 338 337 337 336 334 333 331 331 333 334 333 333 334 335 334 333 333 333 333 334 333 328 323 326 332 333 333 333 333 333 334
196 195 193 193 193 191 190 189 188 189 189 187 186 185 184 184 184 183 181 179 176 174 173 175 175 174 175 178 177 176 177 174 165 152 112 46 13 10 18 27 29 23 13 5 357 351 349 349 347 344 341 338 336 336 335 335 336 336 334 333 331 330 330 329 328 331 333 333 334 334 334 334 334 335 334 330 324 325 332 335 334 334 334 336 336
199 198 196 195 194 193 191 190 188 188 188 186 185 185 184 182 181 181 180 178 178 177 177 178 181 184 185 188 188 185 183 183 183 180 172 121 19 18 21 22 18 11 2 355 347 341 339 339 338 336 335 335 334 333 332 333 334 334 334 333 332 331 329 327 328 331 333 333 334 335 334 334 335 335 336 333 327 325 330 334 334 333 334 336 337
200 199 199 197 195 194 193 190 188 188 187 187 187 187 186 184 182 181 181 180 180 182 182 183 187 192 194 194 193 190 190 194 196 195 192 14 9 8 8 5 360 355 350 344 339 334 331 330 330 329 330 330 330 329 328 328 329 330 332 332 331 330 330 328 328 330 331 332 334 335 335 335 336 336 336 335 330 326 328 332 334 333 333 333 334
199 199 199 198 196 195 194 192 191 190 189 189 189 189 189 188 186 184 184 184 185 187 189 191 196 200 200 199 199 197 197 201 202 202 218 344 350 347 347 345 341 339 338 337 335 330 326 326 325 325 325 327 327 326 324 324 325 326 328 330 329 328 327 327 325 326 327 329 332 334 334 334 335 335 336 336 333 327 327 330 332 333 333 333 333
200 200 199 199 198 196 195 194 194 194 192 191 192 191 191 191 189 187 187 188 189 191 194 197 201 204 203 204 205 203 203 204 204 214 245 279 304 316 322 322 321 324 327 327 325 322 320 320 320 320 320 322 324 324 324 323 323 323 324 325 325 324 325 324 323 322 324 326 329 332 332 333 335 334 334 336 335 330 328 330 331 332 334 335 335
201 200 199 198 197 197 196 196 196 195 194 195 195 194 193 192 190 189 191 192 193 196 199 200 203 205 205 206 209 211 212 212 213 222 240 259 275 287 296 302 308 312 314 315 316 314 311 311 312 312 312 315 318 321 322 323 323 322 320 321 321 320 321 321 320 320 322 325 328 330 330 332 334 333 333 335 334 329 327 329 331 332 334 336 337
202 201 199 199 198 198 199 198 196 196 197 198 197 195 194 193 192 192 194 195 197 201 203 203 205 207 207 208 212 216 219 222 225 232 241 249 259 272 282 289 296 301 304 307 309 307 305 305 306 306 306 307 310 313 315 318 320 320 318 318 317 316 316 317 318 320 321 323 325 327 328 330 332 333 334 335 333 326 324 328 330 331 333 334 337
203 201 200 200 199 200 200 199 198 199 200 199 197 196 195 195 195 196 197 198 201 204 205 206 207 208 209 210 214 219 222 227 232 237 243 248 254 263 274 282 289 294 298 303 306 304 304 305 305 305 304 304 305 307 308 311 314 315 315 316 315 314 314 315 316 318 319 318 319 323 325 327 330 331 333 334 332 326 323 325 327 328 331 332 335
204 202 200 199 199 200 201 201 201 201 201 200 197 196 196 198 199 200 201 202 204 206 207 207 208 210 211 212 215 219 222 228 235 240 244 249 255 260 267 276 285 291 296 301 303 304 305 306 307 308 308 308 307 306 306 307 309 309 309 310 311 311 313 314 313 314 313 312 314 318 320 322 326 329 330 332 331 326 322 323 325 326 329 330 332
206 204 202 201 201 201 201 201 201 201 201 201 198 196 197 200 202 204 205 206 207 209 210 210 210 212 213 214 217 220 223 229 236 241 245 249 254 260 268 275 282 289 295 300 303 305 307 308 309 310 311 312 312 310 308 308 308 307 305 305 305 306 310 312 310 308 308 308 311 314 315 316 321 325 328 330 329 326 325 328 329 327 326 328 329
209 207 205 204 203 202 202 201 200 200 202 202 201 200 200 202 205 207 209 210 211 213 214 214 214 215 215 217 219 222 225 231 237 241 246 251 254 261 268 274 281 287 292 297 302 305 308 310 311 312 313 314 315 314 312 311 309 307 305 303 301 301 305 308 307 305 306 307 307 308 310 311 316 323 328 330 329 328 328 331 332 330 327 328 329
210 208 206 205 204 203 202 201 201 202 204 204 204 205 205 207 209 211 212 213 215 216 217 217 217 217 217 219 223 225 229 233 238 241 245 251 256 262 267 272 278 284 288 295 301 305 308 312 313 314 316 316 317 317 316 314 312 309 307 305 302 300 300 302 303 304 307 307 304 304 306 308 311 318 324 328 328 328 328 329 331 333 332 331 331
210 208 207 206 205 204 203 202 201 203 205 206 208 210 211 214 217 219 219 220 220 220 220 220 220 220 221 223 226 229 233 236 240 243 248 252 257 261 266 270 275 280 286 293 300 305 309 313 315 316 317 318 318 318 317 316 314 312 310 308 305 302 298 297 299 304 307 306 301 300 303 305 308 313 320 324 326 327 328 328 330 333 334 332 332
210 208 207 207 206 205 204 203 201 203 206 208 210 212 215 219 224 227 228 228 227 226 225 224 223 224 225 227 230 235 239 242 244 246 250 254 258 262 266 269 273 278 285 291 298 304 308 311 313 315 317 318 319 318 318 317 315 313 311 308 307 304 301 297 297 301 304 303 299 297 299 301 304 309 315 321 324 325 327 328 330 332 333 333 332
208 208 208 208 207 206 205 204 203 205 208 210 211 213 216 221 227 231 234 234 233 231 230 228 227 228 230 233 236 241 244 247 248 250 252 256 260 263 267 270 274 279 284 289 295 301 305 308 311 314 315 317 319 319 318 317 315 313 311 308 306 305 303 300 297 297 298 297 295 295 296 297 300 305 311 318 322 323 324 326 327 329 332 333 332